This demonstration page uses our WeatherBlox Daily Observations layout. Learn more.

Left ArrowRight Arrow

39.01783, -85.05884

Hourly Observations for June 29, 2022

Temp ( °F °C ) Dew Point ( °F °C ) Humidity (%) Winds ( mph kmh ) Pressure ( in mb ) Visibility ( mi km ) Precip ( " mm )
12:52 am 00:52 Clear 60 15.6 49 9.4 67 67 WSW 3 6 30.19 1022 10 16 0.00 0.00
1:52 am 01:52 Clear 61 16.1 49 9.4 65 65 Calm 30.20 1023 10 16 0.00 0.00
2:52 am 02:52 Clear 61 16.1 45 7.2 56 56 Calm 30.19 1022 10 16 0.00 0.00
3:52 am 03:52 Clear 58 14.4 47 8.3 67 67 Calm 30.19 1022 10 16 0.00 0.00
4:52 am 04:52 Clear 56 13.3 48 8.9 75 75 Calm 30.19 1022 10 16 0.00 0.00
5:52 am 05:52 Clear 55 12.8 49 9.4 80 80 Calm 30.20 1023 10 16 0.00 0.00
6:52 am 06:52 Sunny 56 13.3 50 10 81 81 Calm 30.21 1023 10 16 0.00 0.00
7:52 am 07:52 Sunny 59 15 55 12.8 87 87 Calm 30.22 1023 7 11 0.00 0.00
8:52 am 08:52 Sunny 69 20.6 54 12.2 59 59 W 5 7 30.24 1024 10 16 0.00 0.00
9:52 am 09:52 Sunny 73 22.8 52 11.1 48 48 W 5 7 30.24 1024 10 16 0.00 0.00
10:52 am 10:52 Sunny 75 23.9 51 10.6 43 43 W 7 11 30.25 1024 10 16 0.00 0.00
11:52 am 11:52 Sunny 79 26.1 51 10.6 38 38 VRB 5 7 30.25 1024 10 16 0.00 0.00
12:52 pm 12:52 Sunny 80 26.7 52 11.1 38 38 S 3 6 30.24 1024 10 16 0.00 0.00
1:52 pm 13:52 Sunny 81 27.2 49 9.4 33 33 VRB 3 6 30.23 1024 10 16 0.00 0.00
2:52 pm 14:52 Sunny 84 28.9 52 11.1 33 33 NW 7 11 30.22 1023 10 16 0.00 0.00
3:52 pm 15:52 Sunny 84 28.9 51 10.6 32 32 N 5 7 30.21 1023 10 16 0.00 0.00
4:52 pm 16:52 Sunny 84 28.9 51 10.6 32 32 VRB 5 7 30.20 1023 10 16 0.00 0.00
5:52 pm 17:52 Sunny 84 28.9 54 12.2 36 36 W 8 13 30.19 1022 10 16 0.00 0.00
6:52 pm 18:52 Sunny 83 28.3 53 11.7 36 36 Calm 30.17 1022 10 16 0.00 0.00
7:52 pm 19:52 Sunny 81 27.2 54 12.2 39 39 W 6 9 30.18 1022 10 16 0.00 0.00
8:52 pm 20:52 Sunny 78 25.6 56 13.3 47 47 W 3 6 30.18 1022 10 16 0.00 0.00
9:52 pm 21:52 Clear 76 24.4 53 11.7 45 45 Calm 30.19 1022 10 16 0.00 0.00
10:52 pm 22:52 Clear 74 23.3 54 12.2 50 50 Calm 30.20 1023 10 16 0.00 0.00
11:52 pm 23:52 Clear 72 22.2 54 12.2 53 53 Calm 30.21 1023 10 16 0.00 0.00

Powered by AerisWeather